QFA174 YMML-NZWN

Flight info

Callsign QFA174
Flight time N/A
Altitude 35000
Route CORRS1 CORRS Y66 GIVID M625 GOPLU DCT SIMZI SIMZI4C
Aircraft B738/M-SDE2E3FGHIRWXY/LB1

Departure

Time 2026-05-08 05:09
Airport Melbourne Airport (YMML)

Arrival

Time N/A
Airport Wellington International Airport (NZWN)
Time Latitude Longitude Altitude Speed Heading
2026-05-08 04:49 -37.66778 144.85158 394 ft 0 kts 82°
2026-05-08 04:50 -37.66778 144.85160 392 ft 0 kts 82°
2026-05-08 04:59 -37.66781 144.85131 397 ft 4 kts 81°
2026-05-08 05:00 -37.66784 144.85109 397 ft 4 kts 70°
2026-05-08 05:00 -37.66798 144.85087 391 ft 1 kts
2026-05-08 05:00 -37.66772 144.85087 393 ft 4 kts 359°
2026-05-08 05:00 -37.66745 144.85086 398 ft 4 kts 357°
2026-05-08 05:01 -37.66718 144.85083 398 ft 4 kts 354°
2026-05-08 05:01 -37.66691 144.85079 397 ft 4 kts 352°
2026-05-08 05:01 -37.66685 144.85078 398 ft 1 kts 352°
2026-05-08 05:04 -37.66682 144.85077 398 ft 3 kts 352°
2026-05-08 05:04 -37.66632 144.85069 401 ft 9 kts 352°
2026-05-08 05:04 -37.66572 144.85060 403 ft 9 kts 355°
2026-05-08 05:04 -37.66513 144.85051 405 ft 8 kts 349°
2026-05-08 05:05 -37.66462 144.85023 406 ft 8 kts 324°
2026-05-08 05:05 -37.66418 144.84980 409 ft 8 kts 321°
2026-05-08 05:05 -37.66376 144.84938 409 ft 7 kts 322°
2026-05-08 05:05 -37.66365 144.84928 408 ft 0 kts 322°
2026-05-08 05:06 -37.66348 144.84911 411 ft 9 kts 322°
2026-05-08 05:06 -37.66281 144.84843 408 ft 14 kts 319°
2026-05-08 05:06 -37.66226 144.84757 412 ft 12 kts 288°
2026-05-08 05:06 -37.66221 144.84717 412 ft 0 kts 273°
2026-05-08 05:08 -37.66220 144.84688 412 ft 10 kts 274°
2026-05-08 05:08 -37.66208 144.84493 411 ft 41 kts 274°
2026-05-08 05:08 -37.66170 144.83842 408 ft 109 kts 274°
2026-05-08 05:09 -37.66110 144.82619 411 ft 166 kts 271°
2026-05-08 05:09 -37.66024 144.81064 950 ft 183 kts 272°
2026-05-08 05:09 -37.65999 144.79453 1764 ft 185 kts 259°
2026-05-08 05:09 -37.65915 144.77833 2462 ft 193 kts 272°
2026-05-08 05:10 -37.65765 144.76039 2708 ft 214 kts 270°
2026-05-08 05:10 -37.65529 144.72182 3817 ft 222 kts 265°
2026-05-08 05:10 -37.65801 144.70335 4330 ft 217 kts 239°
2026-05-08 05:11 -37.66626 144.68737 4901 ft 216 kts 226°
2026-05-08 05:11 -37.67759 144.67594 5251 ft 213 kts 210°
2026-05-08 05:11 -37.69045 144.66589 5252 ft 220 kts 211°
2026-05-08 05:11 -37.70363 144.65569 5248 ft 224 kts 211°
2026-05-08 05:12 -37.71819 144.64807 5259 ft 237 kts 189°
2026-05-08 05:12 -37.73495 144.65022 5253 ft 254 kts 163°
2026-05-08 05:12 -37.74960 144.66329 5273 ft 267 kts 133°
2026-05-08 05:12 -37.75889 144.68381 5349 ft 271 kts 121°
2026-05-08 05:13 -37.76709 144.70550 5836 ft 275 kts 121°
2026-05-08 05:13 -37.77519 144.72690 6777 ft 272 kts 121°
2026-05-08 05:13 -37.78326 144.74800 7567 ft 273 kts 121°
2026-05-08 05:13 -37.79153 144.76970 8302 ft 278 kts 118°
2026-05-08 05:14 -37.79684 144.79364 9082 ft 286 kts 107°
2026-05-08 05:14 -37.80063 144.81832 9875 ft 288 kts 107°
2026-05-08 05:14 -37.80311 144.83478 10351 ft 290 kts 107°
2026-05-08 05:14 -37.80845 144.86948 10796 ft 314 kts 107°
2026-05-08 05:15 -37.81284 144.89731 10975 ft 336 kts 107°
2026-05-08 05:15 -37.81763 144.92741 11142 ft 357 kts 107°
2026-05-08 05:15 -37.82267 144.95901 11318 ft 376 kts 107°
2026-05-08 05:15 -37.82789 144.99185 11763 ft 385 kts 106°
2026-05-08 05:16 -37.83313 145.02490 12372 ft 389 kts 106°
2026-05-08 05:16 -37.83845 145.05850 13008 ft 392 kts 107°
2026-05-08 05:16 -37.84383 145.09234 13585 ft 396 kts 107°
2026-05-08 05:16 -37.84933 145.12690 14157 ft 400 kts 107°
2026-05-08 05:17 -37.85483 145.16144 14691 ft 403 kts 106°
2026-05-08 05:17 -37.86037 145.19626 15231 ft 406 kts 106°
2026-05-08 05:17 -37.86594 145.23139 15791 ft 408 kts 106°
2026-05-08 05:17 -37.87155 145.26679 16326 ft 411 kts 106°
2026-05-08 05:18 -37.87718 145.30233 16823 ft 414 kts 105°
2026-05-08 05:19 -37.90553 145.48258 19156 ft 428 kts 105°
2026-05-08 05:19 -37.91137 145.51995 19625 ft 430 kts 105°
2026-05-08 05:19 -37.91716 145.55708 20084 ft 431 kts 105°
2026-05-08 05:20 -37.92296 145.59436 20501 ft 434 kts 105°
2026-05-08 05:20 -37.92960 145.63167 20910 ft 434 kts 110°
2026-05-08 05:20 -37.93907 145.66795 21354 ft 433 kts 114°
2026-05-08 05:20 -37.94989 145.70369 21786 ft 434 kts 115°
2026-05-08 05:21 -37.96113 145.73927 22190 ft 436 kts 115°
2026-05-08 05:21 -37.97231 145.77464 22565 ft 438 kts 115°
2026-05-08 05:21 -37.98346 145.81059 23015 ft 439 kts 115°
2026-05-08 05:21 -37.99450 145.84688 23426 ft 441 kts 115°
2026-05-08 05:22 -38.00536 145.88317 23798 ft 443 kts 114°
2026-05-08 05:22 -38.01626 145.92002 24080 ft 446 kts 114°
2026-05-08 05:22 -38.02707 145.95685 24383 ft 448 kts 114°
2026-05-08 05:22 -38.03794 145.99403 24669 ft 449 kts 114°
2026-05-08 05:23 -38.04876 146.03113 24944 ft 452 kts 114°
2026-05-08 05:23 -38.05965 146.06853 25265 ft 453 kts 114°
2026-05-08 05:23 -38.07060 146.10618 25576 ft 454 kts 114°
2026-05-08 05:23 -38.08141 146.14338 25834 ft 456 kts 114°
2026-05-08 05:24 -38.09241 146.18129 26087 ft 458 kts 114°
2026-05-08 05:24 -38.10341 146.21920 26338 ft 460 kts 114°
2026-05-08 05:24 -38.11447 146.25738 26595 ft 462 kts 114°
2026-05-08 05:24 -38.12556 146.29573 26837 ft 464 kts 114°
2026-05-08 05:25 -38.13668 146.33427 27124 ft 465 kts 115°
2026-05-08 05:25 -38.14774 146.37265 27524 ft 462 kts 115°
2026-05-08 05:25 -38.15877 146.41100 27926 ft 461 kts 115°
2026-05-08 05:25 -38.16978 146.44935 28258 ft 461 kts 115°
2026-05-08 05:26 -38.18074 146.48750 28584 ft 461 kts 115°
2026-05-08 05:26 -38.19160 146.52540 28918 ft 460 kts 115°
2026-05-08 05:26 -38.20251 146.56348 29284 ft 459 kts 115°
2026-05-08 05:26 -38.21341 146.60162 29641 ft 458 kts 115°
2026-05-08 05:27 -38.22424 146.63954 29969 ft 458 kts 115°
2026-05-08 05:27 -38.23510 146.67765 30312 ft 457 kts 115°
2026-05-08 05:27 -38.24591 146.71562 30597 ft 456 kts 115°
2026-05-08 05:27 -38.25665 146.75342 30916 ft 455 kts 115°
2026-05-08 05:28 -38.26743 146.79140 31228 ft 453 kts 115°
2026-05-08 05:28 -38.27808 146.82900 31518 ft 452 kts 115°
2026-05-08 05:28 -38.28726 146.86144 31835 ft 450 kts 115°
2026-05-08 05:28 -38.29780 146.89879 32267 ft 446 kts 115°
2026-05-08 05:29 -38.30815 146.93545 32548 ft 445 kts 116°
2026-05-08 05:29 -38.31878 146.97312 32746 ft 447 kts 116°
2026-05-08 05:29 -38.32926 147.01030 32970 ft 447 kts 116°
2026-05-08 05:29 -38.33960 147.04706 33249 ft 446 kts 116°
2026-05-08 05:30 -38.35003 147.08420 33542 ft 444 kts 116°
2026-05-08 05:30 -38.36037 147.12111 33840 ft 443 kts 116°
2026-05-08 05:30 -38.37068 147.15796 34154 ft 441 kts 116°
2026-05-08 05:30 -38.38090 147.19456 34377 ft 440 kts 116°
2026-05-08 05:31 -38.39120 147.23145 34526 ft 441 kts 116°
2026-05-08 05:31 -38.40150 147.26835 34677 ft 441 kts 116°
2026-05-08 05:31 -38.41176 147.30517 34867 ft 441 kts 116°
2026-05-08 05:31 -38.42198 147.34194 35068 ft 440 kts 116°
2026-05-08 05:32 -38.43209 147.37835 35144 ft 442 kts 116°
2026-05-08 05:32 -38.45258 147.45231 35155 ft 442 kts 116°
2026-05-08 05:33 -38.47288 147.52593 35137 ft 437 kts 116°
2026-05-08 05:33 -38.49292 147.59873 35136 ft 434 kts 116°
2026-05-08 05:34 -38.51287 147.67134 35165 ft 432 kts 116°
2026-05-08 05:34 -38.53261 147.74335 35149 ft 432 kts 116°
2026-05-08 05:35 -38.55245 147.81593 35139 ft 433 kts 116°
2026-05-08 05:35 -38.57228 147.88870 35135 ft 434 kts 116°
2026-05-08 05:36 -38.59209 147.96164 35131 ft 436 kts 116°
2026-05-08 05:36 -38.61198 148.03506 35130 ft 437 kts 116°
2026-05-08 05:37 -38.63187 148.10871 35123 ft 439 kts 116°
2026-05-08 05:37 -38.65160 148.18201 35118 ft 439 kts 116°
2026-05-08 05:38 -38.67149 148.25610 35114 ft 440 kts 116°
2026-05-08 05:38 -38.69126 148.33000 35110 ft 439 kts 116°
2026-05-08 05:39 -38.71100 148.40396 35103 ft 438 kts 116°
2026-05-08 05:39 -38.73062 148.47771 35118 ft 437 kts 116°
2026-05-08 05:40 -38.75001 148.55076 35107 ft 436 kts 117°
2026-05-08 05:40 -38.76947 148.62429 35091 ft 435 kts 117°
2026-05-08 05:41 -38.78885 148.69773 35093 ft 434 kts 116°
2026-05-08 05:41 -38.80813 148.77104 35112 ft 434 kts 117°
2026-05-08 05:42 -38.82739 148.84444 35090 ft 434 kts 117°
2026-05-08 05:42 -38.84646 148.91733 35082 ft 434 kts 117°
2026-05-08 05:43 -38.86564 148.99088 35075 ft 434 kts 117°
2026-05-08 05:43 -38.88476 149.06440 35095 ft 435 kts 117°
2026-05-08 05:44 -38.90387 149.13805 35087 ft 436 kts 117°
2026-05-08 05:44 -38.92286 149.21154 35078 ft 436 kts 117°
2026-05-08 05:45 -38.94195 149.28560 35056 ft 437 kts 116°
2026-05-08 05:45 -38.96097 149.35964 35076 ft 438 kts 116°
2026-05-08 05:46 -38.98003 149.43404 35068 ft 438 kts 116°
2026-05-08 05:46 -38.99906 149.50856 35053 ft 439 kts 116°
2026-05-08 05:47 -39.01796 149.58276 35059 ft 440 kts 116°
2026-05-08 05:47 -39.03693 149.65748 35065 ft 441 kts 116°
2026-05-08 05:48 -39.05590 149.73246 35054 ft 441 kts 116°
2026-05-08 05:48 -39.07485 149.80757 35051 ft 441 kts 116°
2026-05-08 05:49 -39.09361 149.88219 35041 ft 441 kts 116°
2026-05-08 05:49 -39.11243 149.95722 35047 ft 441 kts 116°
2026-05-08 05:50 -39.13124 150.03247 35038 ft 441 kts 116°
2026-05-08 05:50 -39.14995 150.10755 35038 ft 440 kts 116°
2026-05-08 05:51 -39.16857 150.18251 35068 ft 439 kts 116°
2026-05-08 05:51 -39.18715 150.25751 35041 ft 439 kts 116°
2026-05-08 05:52 -39.20550 150.33189 35024 ft 438 kts 116°
2026-05-08 05:52 -39.22394 150.40675 35015 ft 437 kts 116°
2026-05-08 05:53 -39.24211 150.48153 35039 ft 438 kts 115°
2026-05-08 05:53 -39.25831 150.55742 35023 ft 439 kts 114°
2026-05-08 05:54 -39.27373 150.63314 35014 ft 439 kts 114°
2026-05-08 05:54 -39.28934 150.70915 35008 ft 438 kts 114°
2026-05-08 05:55 -39.30505 150.78501 35018 ft 438 kts 114°
2026-05-08 05:55 -39.32063 150.86013 35010 ft 437 kts 114°
2026-05-08 05:56 -39.33621 150.93545 34996 ft 437 kts 114°
2026-05-08 05:56 -39.35187 151.01146 34992 ft 437 kts 114°
2026-05-08 05:57 -39.36747 151.08745 34997 ft 438 kts 114°
2026-05-08 05:57 -39.38303 151.16353 34992 ft 438 kts 114°
2026-05-08 05:58 -39.39847 151.23936 34981 ft 438 kts 114°
2026-05-08 05:58 -39.41394 151.31558 34982 ft 438 kts 114°
2026-05-08 05:59 -39.42938 151.39189 34984 ft 439 kts 114°
2026-05-08 05:59 -39.44477 151.46826 34972 ft 439 kts 114°
2026-05-08 06:00 -39.45754 151.53184 34970 ft 439 kts 114°
2026-05-08 06:01 -39.48984 151.69356 34967 ft 440 kts 114°
2026-05-08 06:01 -39.50507 151.77023 34964 ft 440 kts 114°
2026-05-08 06:02 -39.52024 151.84696 34955 ft 440 kts 114°
2026-05-08 06:02 -39.53538 151.92379 34955 ft 440 kts 114°
2026-05-08 06:03 -39.55037 152.00007 34954 ft 441 kts 113°
2026-05-08 06:03 -39.56542 152.07707 34952 ft 440 kts 113°
2026-05-08 06:04 -39.58042 152.15404 34943 ft 440 kts 113°
2026-05-08 06:04 -39.59519 152.23019 34938 ft 439 kts 113°
2026-05-08 06:05 -39.61004 152.30695 34934 ft 438 kts 113°
2026-05-08 06:05 -39.62481 152.38363 34931 ft 438 kts 113°
2026-05-08 06:06 -39.63952 152.46029 34925 ft 438 kts 113°
2026-05-08 06:06 -39.65401 152.53606 34961 ft 438 kts 113°
2026-05-08 06:07 -39.66868 152.61303 34939 ft 438 kts 113°
2026-05-08 06:07 -39.68324 152.68980 34909 ft 438 kts 113°
2026-05-08 06:08 -39.69773 152.76650 34911 ft 438 kts 113°
2026-05-08 06:08 -39.71219 152.84333 34943 ft 438 kts 112°
2026-05-08 06:09 -39.72417 152.90722 34911 ft 439 kts 112°
2026-05-08 06:09 -39.74090 152.99670 34902 ft 439 kts 112°
2026-05-08 06:10 -39.75527 153.07394 34896 ft 440 kts 112°
2026-05-08 06:10 -39.76957 153.15115 34919 ft 441 kts 111°
2026-05-08 06:11 -39.78392 153.22886 34903 ft 442 kts 111°
2026-05-08 06:11 -39.79822 153.30668 34893 ft 443 kts 111°
2026-05-08 06:12 -39.81241 153.38422 34881 ft 444 kts 111°
2026-05-08 06:12 -39.82670 153.46261 34897 ft 446 kts 111°
2026-05-08 06:13 -39.84094 153.54099 34882 ft 447 kts 111°
2026-05-08 06:13 -39.85510 153.61938 34869 ft 448 kts 111°
2026-05-08 06:14 -39.86929 153.69819 34867 ft 448 kts 111°
2026-05-08 06:14 -39.88351 153.77748 34878 ft 449 kts 110°
2026-05-08 06:15 -39.89764 153.85663 34870 ft 450 kts 110°
2026-05-08 06:15 -39.91174 153.93599 34855 ft 450 kts 110°
2026-05-08 06:16 -39.92568 154.01476 34851 ft 450 kts 110°
2026-05-08 06:16 -39.93970 154.09426 34849 ft 450 kts 110°
2026-05-08 06:17 -39.96060 154.21346 34839 ft 450 kts 110°
2026-05-08 06:17 -39.97447 154.29300 34840 ft 450 kts 109°
2026-05-08 06:18 -39.98819 154.37204 34852 ft 450 kts 109°
2026-05-08 06:18 -39.99994 154.43998 34837 ft 451 kts 109°
2026-05-08 06:19 -40.01370 154.51984 34827 ft 452 kts 109°
2026-05-08 06:19 -40.02742 154.59981 34823 ft 452 kts 109°
2026-05-08 06:20 -40.04100 154.67935 34836 ft 453 kts 108°
2026-05-08 06:20 -40.05468 154.75981 34819 ft 454 kts 108°
2026-05-08 06:21 -40.06830 154.84026 34816 ft 455 kts 108°
2026-05-08 06:21 -40.08191 154.92111 34807 ft 455 kts 108°
2026-05-08 06:22 -40.09546 155.00186 34818 ft 456 kts 108°
2026-05-08 06:22 -40.10888 155.08228 34805 ft 457 kts 108°
2026-05-08 06:23 -40.12239 155.16355 34801 ft 457 kts 108°
2026-05-08 06:23 -40.13581 155.24472 34795 ft 458 kts 107°
2026-05-08 06:24 -40.14921 155.32610 34797 ft 458 kts 107°
2026-05-08 06:24 -40.16248 155.40704 34786 ft 458 kts 107°
2026-05-08 06:25 -40.17575 155.48843 34782 ft 458 kts 107°
2026-05-08 06:25 -40.18898 155.56991 34783 ft 458 kts 107°
2026-05-08 06:26 -40.20214 155.65131 34786 ft 458 kts 107°
2026-05-08 06:26 -40.21520 155.73251 34784 ft 458 kts 107°
2026-05-08 06:27 -40.22827 155.81419 34776 ft 459 kts 107°
2026-05-08 06:27 -40.24129 155.89590 34774 ft 459 kts 107°
2026-05-08 06:28 -40.25424 155.97758 34772 ft 459 kts 106°
2026-05-08 06:28 -40.26710 156.05909 34784 ft 460 kts 106°
2026-05-08 06:29 -40.27999 156.14112 34773 ft 461 kts 106°
2026-05-08 06:29 -40.29287 156.22357 34764 ft 462 kts 106°
2026-05-08 06:30 -40.30567 156.30596 34765 ft 463 kts 105°
2026-05-08 06:30 -40.31839 156.38811 34761 ft 463 kts 105°
2026-05-08 06:31 -40.32788 156.44970 34763 ft 464 kts 105°
2026-05-08 06:31 -40.34060 156.53267 34754 ft 465 kts 105°
2026-05-08 06:32 -40.35331 156.61599 34763 ft 466 kts 104°
2026-05-08 06:32 -40.36589 156.69880 34751 ft 466 kts 104°
2026-05-08 06:33 -40.37849 156.78217 34751 ft 466 kts 104°
2026-05-08 06:33 -40.39101 156.86561 34750 ft 466 kts 104°
2026-05-08 06:34 -40.40346 156.94902 34759 ft 466 kts 103°
2026-05-08 06:34 -40.41587 157.03266 34749 ft 466 kts 103°
2026-05-08 06:35 -40.42809 157.11540 34745 ft 466 kts 103°
2026-05-08 06:35 -40.44037 157.19889 34747 ft 465 kts 103°
2026-05-08 06:36 -40.45253 157.28207 34747 ft 465 kts 103°
2026-05-08 06:36 -40.46468 157.36567 34747 ft 465 kts 103°
2026-05-08 06:37 -40.47673 157.44897 34740 ft 465 kts 103°
2026-05-08 06:37 -40.48865 157.53183 34737 ft 465 kts 103°
2026-05-08 06:38 -40.50057 157.61508 34733 ft 465 kts 103°
2026-05-08 06:38 -40.51248 157.69881 34738 ft 466 kts 103°
2026-05-08 06:39 -40.52434 157.78257 34735 ft 467 kts 103°
2026-05-08 06:39 -40.53608 157.86588 34736 ft 467 kts 103°
2026-05-08 06:40 -40.54786 157.95001 34727 ft 469 kts 102°
2026-05-08 06:40 -40.55962 158.03448 34730 ft 470 kts 103°
2026-05-08 06:41 -40.57133 158.11907 34723 ft 470 kts 103°
2026-05-08 06:41 -40.58300 158.20372 34728 ft 471 kts 103°
2026-05-08 06:42 -40.59455 158.28806 34719 ft 472 kts 101°
2026-05-08 06:42 -40.60611 158.37315 34728 ft 472 kts 103°
2026-05-08 06:43 -40.61571 158.44391 34731 ft 472 kts 102°
2026-05-08 06:43 -40.62405 158.50583 34714 ft 473 kts 103°
2026-05-08 06:44 -40.63547 158.59094 34729 ft 473 kts 103°
2026-05-08 06:44 -40.64686 158.67621 34707 ft 473 kts 103°
2026-05-08 06:45 -40.65817 158.76151 34716 ft 472 kts 102°
2026-05-08 06:45 -40.66837 158.83914 34718 ft 472 kts 102°
2026-05-08 06:46 -40.67952 158.92425 34703 ft 472 kts 102°
2026-05-08 06:46 -40.69055 159.00886 34697 ft 473 kts 103°
2026-05-08 06:47 -40.70163 159.09417 34715 ft 473 kts 102°
2026-05-08 06:47 -40.71258 159.17913 34701 ft 474 kts 103°
2026-05-08 06:48 -40.72362 159.26533 34702 ft 475 kts 101°
2026-05-08 06:48 -40.73449 159.35082 34698 ft 476 kts 102°
2026-05-08 06:49 -40.74487 159.43318 34698 ft 477 kts 101°
2026-05-08 06:49 -40.75562 159.51906 34684 ft 478 kts 102°
2026-05-08 06:50 -40.76637 159.60493 34692 ft 479 kts 101°
2026-05-08 06:50 -40.77713 159.69132 34679 ft 481 kts 102°
2026-05-08 06:51 -40.78786 159.77825 34691 ft 480 kts 102°
2026-05-08 06:51 -40.79847 159.86535 34679 ft 481 kts 101°
2026-05-08 06:52 -40.80908 159.95244 34674 ft 481 kts 102°
2026-05-08 06:52 -40.81956 160.03913 34672 ft 482 kts 101°
2026-05-08 06:53 -40.83009 160.12656 34660 ft 482 kts 101°
2026-05-08 06:53 -40.84056 160.21397 34668 ft 482 kts 100°
2026-05-08 06:54 -40.85092 160.30142 34654 ft 482 kts 100°
2026-05-08 06:54 -40.85948 160.37425 34655 ft 483 kts 101°